RYR6142 EDDG-EGSS

Flight info

Callsign RYR6142
Flight time 1h 4m
Altitude 32000
Route SUVOX1E SUVOX DCT REBGU L602 FLEVO L980 PAM DCT NOGRO M40 RINIS
Aircraft B738/M-SDE3FGILRWY/SB1

Departure

Time 2026-05-06 15:05
Airport Münster Osnabrück Airport (EDDG)

Arrival

Time 2026-05-06 16:10
Airport London Stansted Airport (EGSS)
Time Latitude Longitude Altitude Speed Heading
2026-05-06 14:33 52.13174 7.69377 167 ft 0 kts 198°
2026-05-06 14:55 52.13173 7.69377 167 ft 0 kts 198°
2026-05-06 14:55 52.13169 7.69370 166 ft 0 kts 220°
2026-05-06 14:55 52.13168 7.69368 167 ft 0 kts 220°
2026-05-06 14:55 52.13165 7.69365 167 ft 0 kts 220°
2026-05-06 14:56 52.13165 7.69364 167 ft 0 kts 220°
2026-05-06 14:56 52.13164 7.69362 167 ft 0 kts 220°
2026-05-06 14:56 52.13163 7.69362 167 ft 1 kts 220°
2026-05-06 14:56 52.13159 7.69356 166 ft 1 kts 223°
2026-05-06 14:57 52.13158 7.69351 167 ft 0 kts 240°
2026-05-06 14:57 52.13157 7.69348 167 ft 0 kts 240°
2026-05-06 14:57 52.13157 7.69347 167 ft 0 kts 240°
2026-05-06 14:58 52.13160 7.69357 166 ft 2 kts 240°
2026-05-06 14:58 52.13168 7.69378 167 ft 0 kts 240°
2026-05-06 14:58 52.13169 7.69371 166 ft 1 kts 285°
2026-05-06 14:58 52.13190 7.69365 167 ft 7 kts 348°
2026-05-06 14:59 52.13215 7.69272 167 ft 11 kts 255°
2026-05-06 14:59 52.13189 7.69148 167 ft 11 kts 251°
2026-05-06 14:59 52.13163 7.69028 167 ft 11 kts 253°
2026-05-06 14:59 52.13196 7.68932 167 ft 11 kts 339°
2026-05-06 15:00 52.13266 7.68889 167 ft 10 kts 339°
2026-05-06 15:00 52.13332 7.68850 167 ft 10 kts 337°
2026-05-06 15:00 52.13344 7.68747 167 ft 10 kts 253°
2026-05-06 15:00 52.13323 7.68640 167 ft 10 kts 251°
2026-05-06 15:01 52.13297 7.68519 167 ft 13 kts 250°
2026-05-06 15:01 52.13262 7.68356 167 ft 17 kts 251°
2026-05-06 15:01 52.13218 7.68148 167 ft 21 kts 250°
2026-05-06 15:01 52.13165 7.67900 167 ft 25 kts 251°
2026-05-06 15:02 52.13107 7.67631 166 ft 25 kts 250°
2026-05-06 15:02 52.13054 7.67376 166 ft 23 kts 251°
2026-05-06 15:02 52.13024 7.67204 166 ft 10 kts 271°
2026-05-06 15:02 52.13052 7.67106 166 ft 10 kts 313°
2026-05-06 15:03 52.13061 7.67093 166 ft 0 kts 318°
2026-05-06 15:03 52.13066 7.67085 166 ft 3 kts 321°
2026-05-06 15:03 52.13118 7.67044 166 ft 11 kts 343°
2026-05-06 15:03 52.13153 7.67039 166 ft 2 kts 32°
2026-05-06 15:04 52.13163 7.67067 165 ft 3 kts 64°
2026-05-06 15:04 52.13167 7.67083 165 ft 0 kts 68°
2026-05-06 15:04 52.13168 7.67086 165 ft 1 kts 69°
2026-05-06 15:04 52.13171 7.67098 165 ft 1 kts 69°
2026-05-06 15:05 52.13179 7.67130 165 ft 10 kts 69°
2026-05-06 15:05 52.13297 7.67686 165 ft 94 kts 71°
2026-05-06 15:05 52.13586 7.69077 219 ft 159 kts 69°
2026-05-06 15:05 52.13936 7.70764 1180 ft 154 kts 68°
2026-05-06 15:06 52.14316 7.72416 2070 ft 168 kts 66°
2026-05-06 15:06 52.14850 7.74460 2171 ft 212 kts 64°
2026-05-06 15:06 52.15469 7.76790 2513 ft 237 kts 64°
2026-05-06 15:06 52.16161 7.79349 2793 ft 262 kts 70°
2026-05-06 15:07 52.16172 7.82324 3735 ft 264 kts 108°
2026-05-06 15:07 52.15125 7.84683 4728 ft 267 kts 139°
2026-05-06 15:07 52.13383 7.85799 5115 ft 271 kts 176°
2026-05-06 15:07 52.11531 7.85820 5978 ft 270 kts 168°
2026-05-06 15:08 52.09677 7.86176 6983 ft 272 kts 185°
2026-05-06 15:08 52.07942 7.84991 7852 ft 278 kts 221°
2026-05-06 15:08 52.07217 7.83687 8167 ft 283 kts 241°
2026-05-06 15:09 52.07202 7.83649 8188 ft 283 kts 241°
2026-05-06 15:09 52.06534 7.80622 8827 ft 288 kts 257°
2026-05-06 15:09 52.05954 7.77468 9592 ft 294 kts 256°
2026-05-06 15:09 52.05316 7.74277 10258 ft 302 kts 255°
2026-05-06 15:10 52.04628 7.70906 10456 ft 327 kts 254°
2026-05-06 15:10 52.03884 7.67324 10895 ft 340 kts 253°
2026-05-06 15:10 52.03259 7.64351 11524 ft 341 kts 252°
2026-05-06 15:11 52.02691 7.61668 12310 ft 336 kts 252°
2026-05-06 15:11 52.01932 7.58100 13472 ft 331 kts 251°
2026-05-06 15:11 52.01131 7.54563 14293 ft 339 kts 249°
2026-05-06 15:11 52.00344 7.50913 15099 ft 346 kts 252°
2026-05-06 15:12 51.99582 7.47191 15938 ft 350 kts 251°
2026-05-06 15:12 51.98789 7.43411 16720 ft 357 kts 251°
2026-05-06 15:12 51.97978 7.39607 17638 ft 359 kts 251°
2026-05-06 15:12 51.97159 7.35787 18491 ft 361 kts 251°
2026-05-06 15:13 51.96325 7.31921 19162 ft 365 kts 251°
2026-05-06 15:13 51.95695 7.27912 19825 ft 373 kts 266°
2026-05-06 15:13 51.95859 7.23704 20531 ft 374 kts 277°
2026-05-06 15:13 51.96209 7.19483 21067 ft 381 kts 277°
2026-05-06 15:14 51.96572 7.15235 21860 ft 379 kts 279°
2026-05-06 15:14 51.97464 7.11191 22372 ft 388 kts 299°
2026-05-06 15:14 51.99139 7.07717 22843 ft 397 kts 316°
2026-05-06 15:14 52.01297 7.04875 23454 ft 401 kts 320°
2026-05-06 15:15 52.03517 7.02091 23943 ft 405 kts 320°
2026-05-06 15:15 52.05707 6.99190 24384 ft 409 kts 315°
2026-05-06 15:15 52.07574 6.95705 24843 ft 410 kts 303°
2026-05-06 15:15 52.09020 6.91724 25364 ft 410 kts 294°
2026-05-06 15:16 52.10193 6.87481 25825 ft 413 kts 292°
2026-05-06 15:16 52.11340 6.83184 26334 ft 415 kts 291°
2026-05-06 15:16 52.12509 6.78905 26942 ft 414 kts 293°
2026-05-06 15:16 52.13722 6.74662 27530 ft 413 kts 291°
2026-05-06 15:17 52.14775 6.70310 28084 ft 413 kts 288°
2026-05-06 15:17 52.15735 6.65913 28680 ft 412 kts 287°
2026-05-06 15:17 52.16657 6.61567 29297 ft 411 kts 287°
2026-05-06 15:17 52.17592 6.57174 29882 ft 410 kts 287°
2026-05-06 15:18 52.18538 6.52785 30341 ft 411 kts 287°
2026-05-06 15:18 52.19487 6.48404 30881 ft 409 kts 288°
2026-05-06 15:18 52.20441 6.44055 31422 ft 406 kts 287°
2026-05-06 15:18 52.21387 6.39728 31870 ft 405 kts 288°
2026-05-06 15:19 52.22342 6.35372 31856 ft 409 kts 287°
2026-05-06 15:19 52.24234 6.26692 31878 ft 403 kts 287°
2026-05-06 15:20 52.26108 6.18082 31881 ft 404 kts 287°
2026-05-06 15:20 52.27983 6.09435 31890 ft 404 kts 287°
2026-05-06 15:21 52.29852 6.00761 31884 ft 405 kts 287°
2026-05-06 15:21 52.31718 5.92082 31898 ft 405 kts 287°
2026-05-06 15:22 52.33572 5.83417 31881 ft 403 kts 288°
2026-05-06 15:22 52.35411 5.74803 31875 ft 400 kts 287°
2026-05-06 15:23 52.37224 5.66245 31880 ft 397 kts 287°
2026-05-06 15:23 52.37916 5.61897 31878 ft 394 kts 276°
2026-05-06 15:23 52.38132 5.57449 31887 ft 391 kts 268°
2026-05-06 15:24 52.37458 5.48651 31889 ft 390 kts 259°
2026-05-06 15:24 52.36546 5.39878 31894 ft 392 kts 259°
2026-05-06 15:25 52.35676 5.31067 31883 ft 392 kts 260°
2026-05-06 15:25 52.34810 5.22254 31880 ft 392 kts 259°
2026-05-06 15:26 52.33930 5.13473 31904 ft 391 kts 259°
2026-05-06 15:26 52.32813 5.04795 31909 ft 389 kts 253°
2026-05-06 15:27 52.31229 4.96336 31918 ft 389 kts 251°
2026-05-06 15:27 52.29616 4.87899 31916 ft 389 kts 252°
2026-05-06 15:28 52.28028 4.79460 31918 ft 388 kts 252°
2026-05-06 15:28 52.26456 4.71047 31910 ft 387 kts 252°
2026-05-06 15:29 52.24887 4.62642 31892 ft 387 kts 252°
2026-05-06 15:29 52.23313 4.54256 31885 ft 387 kts 251°
2026-05-06 15:30 52.21744 4.45928 31900 ft 387 kts 252°
2026-05-06 15:30 52.20157 4.37541 31883 ft 388 kts 252°
2026-05-06 15:31 52.18561 4.29140 31903 ft 388 kts 252°
2026-05-06 15:31 52.16951 4.20724 31893 ft 389 kts 251°
2026-05-06 15:32 52.14522 4.08069 31907 ft 391 kts 251°
2026-05-06 15:32 52.12892 3.99619 31912 ft 391 kts 251°
2026-05-06 15:33 52.11257 3.91183 31920 ft 390 kts 251°
2026-05-06 15:33 52.09629 3.82828 31905 ft 383 kts 251°
2026-05-06 15:34 52.08022 3.74626 31907 ft 383 kts 251°
2026-05-06 15:34 52.06387 3.66315 31917 ft 387 kts 251°
2026-05-06 15:35 52.04750 3.58021 31920 ft 384 kts 251°
2026-05-06 15:35 52.03110 3.49731 31924 ft 386 kts 251°
2026-05-06 15:36 52.01465 3.41459 31912 ft 383 kts 251°
2026-05-06 15:36 52.00651 3.37378 31762 ft 377 kts 251°
2026-05-06 15:36 51.99844 3.33333 31218 ft 378 kts 251°
2026-05-06 15:37 51.99037 3.29305 31112 ft 366 kts 251°
2026-05-06 15:37 51.98257 3.25419 30721 ft 365 kts 251°
2026-05-06 15:37 51.97489 3.21605 30840 ft 347 kts 251°
2026-05-06 15:37 51.96767 3.17943 30850 ft 335 kts 254°
2026-05-06 15:38 51.96359 3.14309 30919 ft 322 kts 263°
2026-05-06 15:38 51.96135 3.10766 30904 ft 311 kts 263°
2026-05-06 15:38 51.95926 3.07389 30916 ft 300 kts 263°
2026-05-06 15:38 51.95714 3.04003 30951 ft 297 kts 262°
2026-05-06 15:39 51.95472 3.00642 30901 ft 312 kts 262°
2026-05-06 15:39 51.95237 2.97014 30892 ft 325 kts 263°
2026-05-06 15:39 51.95007 2.93363 30940 ft 336 kts 263°
2026-05-06 15:39 51.94756 2.89523 30954 ft 348 kts 263°
2026-05-06 15:40 51.94492 2.85557 30953 ft 360 kts 263°
2026-05-06 15:40 51.94215 2.81462 30956 ft 371 kts 263°
2026-05-06 15:40 51.93926 2.77241 30954 ft 382 kts 263°
2026-05-06 15:40 51.93629 2.72902 30966 ft 392 kts 262°
2026-05-06 15:41 51.93005 2.63894 30956 ft 412 kts 263°
2026-05-06 15:41 51.92360 2.54519 30948 ft 423 kts 263°
2026-05-06 15:42 51.91700 2.44987 30934 ft 428 kts 263°
2026-05-06 15:42 51.91141 2.37011 30947 ft 430 kts 262°
2026-05-06 15:43 51.90591 2.27365 30944 ft 431 kts 266°
2026-05-06 15:43 51.90419 2.17679 30946 ft 430 kts 267°
2026-05-06 15:44 51.90246 2.08033 30951 ft 427 kts 267°
2026-05-06 15:44 51.90018 1.98387 30957 ft 425 kts 266°
2026-05-06 15:45 51.90043 1.88866 30904 ft 418 kts 281°
2026-05-06 15:45 51.90971 1.84558 30826 ft 406 kts 295°
2026-05-06 15:45 51.92277 1.80589 30771 ft 394 kts 297°
2026-05-06 15:46 51.93578 1.76768 30695 ft 381 kts 297°
2026-05-06 15:46 51.94842 1.73054 30536 ft 373 kts 297°
2026-05-06 15:46 51.96078 1.69382 30182 ft 371 kts 296°
2026-05-06 15:46 51.97301 1.65709 29700 ft 370 kts 296°
2026-05-06 15:47 51.98513 1.62040 29269 ft 367 kts 296°
2026-05-06 15:47 51.99706 1.58398 28831 ft 365 kts 296°
2026-05-06 15:47 52.00900 1.54780 28426 ft 362 kts 296°
2026-05-06 15:47 52.02074 1.51181 28015 ft 360 kts 296°
2026-05-06 15:48 52.03242 1.47596 27624 ft 358 kts 296°
2026-05-06 15:48 52.04400 1.44042 27292 ft 354 kts 296°
2026-05-06 15:48 52.05546 1.40537 26983 ft 350 kts 296°
2026-05-06 15:48 52.06677 1.37040 26608 ft 349 kts 296°
2026-05-06 15:49 52.07797 1.33586 26132 ft 344 kts 296°
2026-05-06 15:49 52.08929 1.30104 25056 ft 354 kts 296°
2026-05-06 15:49 52.10094 1.26506 24114 ft 362 kts 296°
2026-05-06 15:49 52.11111 1.22789 23371 ft 358 kts 282°
2026-05-06 15:50 52.11358 1.18817 22694 ft 350 kts 267°
2026-05-06 15:50 52.10995 1.14988 22040 ft 346 kts 257°
2026-05-06 15:50 52.10381 1.11174 21329 ft 343 kts 255°
2026-05-06 15:50 52.09723 1.07459 20620 ft 341 kts 254°
2026-05-06 15:51 52.09068 1.03772 19953 ft 338 kts 255°
2026-05-06 15:51 52.08435 1.00161 19312 ft 335 kts 255°
2026-05-06 15:51 52.07811 0.96531 18685 ft 332 kts 256°
2026-05-06 15:51 52.07197 0.92927 18024 ft 330 kts 256°
2026-05-06 15:52 52.06591 0.89347 17332 ft 327 kts 256°
2026-05-06 15:52 52.05991 0.85795 16675 ft 324 kts 256°
2026-05-06 15:52 52.05399 0.82296 16070 ft 320 kts 256°
2026-05-06 15:52 52.04814 0.78832 15443 ft 317 kts 256°
2026-05-06 15:53 52.04234 0.75398 14784 ft 315 kts 256°
2026-05-06 15:53 52.03657 0.71985 14197 ft 312 kts 256°
2026-05-06 15:53 52.03081 0.68588 13532 ft 312 kts 256°
2026-05-06 15:53 52.02510 0.65241 13004 ft 305 kts 256°
2026-05-06 15:54 52.01944 0.61918 12393 ft 304 kts 256°
2026-05-06 15:54 52.01438 0.58621 11772 ft 300 kts 263°
2026-05-06 15:54 52.01339 0.55257 11248 ft 295 kts 271°
2026-05-06 15:54 52.01326 0.51963 10695 ft 292 kts 271°
2026-05-06 15:55 52.01318 0.48646 9949 ft 297 kts 271°
2026-05-06 15:55 52.01304 0.45286 9274 ft 297 kts 271°
2026-05-06 15:55 52.01280 0.41966 8645 ft 294 kts 271°
2026-05-06 15:55 52.01262 0.38631 7924 ft 297 kts 271°
2026-05-06 15:56 52.01240 0.35278 7332 ft 297 kts 271°
2026-05-06 15:56 52.01227 0.31920 7146 ft 299 kts 270°
2026-05-06 15:56 52.01222 0.28602 7024 ft 289 kts 271°
2026-05-06 15:56 52.01217 0.25408 6985 ft 277 kts 271°
2026-05-06 15:57 52.01216 0.22357 6966 ft 264 kts 271°
2026-05-06 15:57 52.01200 0.19445 6983 ft 252 kts 266°
2026-05-06 15:57 52.00684 0.16809 6995 ft 244 kts 235°
2026-05-06 15:57 51.99544 0.14815 7000 ft 241 kts 222°
2026-05-06 15:58 51.98282 0.12972 7013 ft 249 kts 221°
2026-05-06 15:58 51.96974 0.11099 7005 ft 252 kts 221°
2026-05-06 15:58 51.95661 0.09227 7004 ft 251 kts 221°
2026-05-06 15:58 51.94357 0.07372 6991 ft 248 kts 221°
2026-05-06 15:59 51.93061 0.05529 6985 ft 247 kts 221°
2026-05-06 15:59 51.91776 0.03708 6989 ft 247 kts 221°
2026-05-06 15:59 51.90494 0.01887 7004 ft 250 kts 221°
2026-05-06 15:59 51.89184 0.00028 6951 ft 251 kts 221°
2026-05-06 16:00 51.87868 -0.01831 6805 ft 249 kts 221°
2026-05-06 16:00 51.86557 -0.03647 6585 ft 247 kts 221°
2026-05-06 16:00 51.85264 -0.05436 6342 ft 246 kts 220°
2026-05-06 16:00 51.83970 -0.07222 6175 ft 243 kts 221°
2026-05-06 16:01 51.82676 -0.09002 5848 ft 246 kts 221°
2026-05-06 16:01 51.81377 -0.10775 5652 ft 244 kts 221°
2026-05-06 16:01 51.80082 -0.12527 5472 ft 242 kts 220°
2026-05-06 16:01 51.78800 -0.14251 5326 ft 238 kts 221°
2026-05-06 16:02 51.77528 -0.15956 5070 ft 238 kts 221°
2026-05-06 16:02 51.76246 -0.17654 4819 ft 237 kts 220°
2026-05-06 16:02 51.74963 -0.19326 4538 ft 239 kts 217°
2026-05-06 16:02 51.73421 -0.20366 4137 ft 246 kts 186°
2026-05-06 16:03 51.71783 -0.19856 3973 ft 240 kts 147°
2026-05-06 16:03 51.70723 -0.17906 3732 ft 231 kts 106°
2026-05-06 16:03 51.70646 -0.15410 3450 ft 222 kts 72°
2026-05-06 16:03 51.71061 -0.13040 3225 ft 221 kts 71°
2026-05-06 16:04 51.71490 -0.10641 3082 ft 221 kts 71°
2026-05-06 16:04 51.71919 -0.08272 3042 ft 219 kts 70°
2026-05-06 16:04 51.72334 -0.05933 3038 ft 216 kts 71°
2026-05-06 16:04 51.72754 -0.03600 3032 ft 217 kts 71°
2026-05-06 16:05 51.73177 -0.01260 3038 ft 219 kts 70°
2026-05-06 16:05 51.73661 0.01088 2984 ft 220 kts 57°
2026-05-06 16:05 51.74711 0.02729 3029 ft 203 kts 29°
2026-05-06 16:05 51.75771 0.04128 2986 ft 191 kts 49°
2026-05-06 16:06 51.76619 0.05666 2981 ft 179 kts 37°
2026-05-06 16:06 51.77556 0.06945 2985 ft 176 kts 41°
2026-05-06 16:06 51.78443 0.08332 2885 ft 180 kts 41°
2026-05-06 16:06 51.79360 0.09718 2659 ft 180 kts 40°
2026-05-06 16:07 51.80267 0.11082 2430 ft 177 kts 39°
2026-05-06 16:07 51.81159 0.12426 2177 ft 173 kts 39°
2026-05-06 16:07 51.82029 0.13737 1948 ft 170 kts 39°
2026-05-06 16:07 51.82879 0.15021 1702 ft 162 kts 39°
2026-05-06 16:08 51.83655 0.16191 1493 ft 147 kts 39°
2026-05-06 16:08 51.84375 0.17276 1288 ft 138 kts 40°
2026-05-06 16:08 51.85081 0.18335 1088 ft 139 kts 39°
2026-05-06 16:08 51.85805 0.19432 893 ft 143 kts 40°
2026-05-06 16:09 51.86532 0.20535 702 ft 143 kts 41°
2026-05-06 16:09 51.87254 0.21600 499 ft 141 kts 43°
2026-05-06 16:09 51.87958 0.22670 345 ft 134 kts 40°
2026-05-06 16:09 51.88585 0.23605 347 ft 105 kts 43°
2026-05-06 16:10 51.88966 0.24182 359 ft 46 kts 43°
2026-05-06 16:10 51.89042 0.24335 356 ft 3 kts 61°
2026-05-06 16:10 51.89065 0.24403 354 ft 13 kts 61°
2026-05-06 16:10 51.89115 0.24588 354 ft 19 kts 69°
2026-05-06 16:11 51.89150 0.24732 348 ft 1 kts 69°
2026-05-06 16:11 51.89151 0.24735 348 ft 0 kts 69°
2026-05-06 16:11 51.89162 0.24779 355 ft 12 kts 68°
2026-05-06 16:11 51.89132 0.24894 355 ft 11 kts 189°
2026-05-06 16:12 51.89046 0.24827 351 ft 16 kts 173°
2026-05-06 16:12 51.88983 0.24959 351 ft 16 kts 86°
2026-05-06 16:12 51.89053 0.25094 359 ft 16 kts 42°
2026-05-06 16:12 51.89134 0.25213 353 ft 15 kts 44°
2026-05-06 16:13 51.89122 0.25314 351 ft 10 kts 171°
2026-05-06 16:13 51.89082 0.25293 351 ft 0 kts 203°